Showing default

HBTSS-SV2, 58955

Orbit data source: Space-Track

HBTSS-SV2, 58955 is a payload satellite owned by MDA (US) in LEO that was launched on Wed, 14 Feb 2024 UTC via an FALCON 9 launch vehicle from the Air Force Eastern Test Range (AFETR). Payload-class satellites include a variety of spacecraft equipped with specific instruments for various scientific and technological missions. These include communications satellites like Starlink; space stations such as the ISS; scientific satellites like the Hubble; Earth observation satellites from companies like Planet Labs, Umbra, and HawkEye 360; GPS; miniature CubeSats for education and research; and military/defense satellites.

Loading next visibility...
Identifier
58955, 2024-028A
Orbit
LEO
Last TLE update
19 hours ago
Origin
Manufacturer
NGIS
Mission
Operational Commercial Early Warn
Bus & Motor
HBT-NG, Unknown motor
Mass
~1,000 kg wet, ~1,000 kg dry
Launch date (UTC)
2024-02-14 (1 year ago)
Launch vehicle
FALCON 9
Launch site
Air Force Eastern Test Range (AFETR)
Object type
Payload
Rocket body
Debris
Shape & HBR
Box + 2 Pan, 2 m
Radar Cross Section
1.012 m², Large (>1 m²)

Expand to show TLE details & history

TLE from 19 hours ago
0 HBTSS-SV2
1 58955U 24028A   25183.74470723 -.00000002  00000-0  85093-4 0  9993
2 58955  39.9890 209.2231 0017653  34.8498 325.3402 13.70369781 69121
Epoch: 2025-07-02T17:52Z
TLE epoch observation values (Epoch: 2025-07-02T17:52:22.704Z)
Latitude
0.00003°
Longitude
20.10712°
Altitude
987.023 km
Speed
7.365 km/s
True Right ascension
13h 56m 53s
True Declination
0° 00' 00"
Sunlit
Object was in daylight at epoch
Visualization orbit readout
Latitude
-34.5215°
Longitude
-108.79876°
Altitude
1,019.89 km
Speed
7.336 km/s
Apparent Right ascension
08h 18m 01s
Apparent Declination
-50° 27' 17"
Sunlit
Object is in daylight
Visualization observer readout
Local Sidereal Time
00:18:59
Azimuth
125.114° SE
Elevation
-47.492°
Doppler factor
1
Orbital elements
Apogee altitude
1,013.546 km
Perigee altitude
987.495 km
Semi-major axis
7,378.658 km
Eccentricity
0.00177
Inclination
39.989°
RAAN
209.2231°
Arg. of periapsis
34.8498°
True anomaly
Unknown
Mean anomaly
325.3402°
Eccentric anomaly
Unknown
Mean motion
3.42434 °/min
Orbital period
105.13 mins
BSTAR
0.000085093
Loading maneuver chart data...
Loading SW <> Apogee altitude chart data...
Loading historical data...
Loading historical data...
Loading historical data...
Loading historical data...
Loading historical data...
Loading historical data...
Loading historical data...
Other satellites on launch #28 in the year 2024 (2024-02-14 UTC)

HBTSS-SV2 Visibility forecast

Observer location: undefined°, undefined°

Span
Click to sort rows by Start time (UTC) header in descending order
Start Az.
Max El. time (UTC)
Max El. Az.
Max El.
End time (UTC)
End Az.
8 mins2025-07-04 03:15:19.025Z178.284° S2025-07-04 03:19:19.025Z139.498° SSE16.768°2025-07-04 03:23:19.025Z101.202° ESE
11 mins2025-07-04 05:04:19.025Z226.43° WSW2025-07-04 05:09:19.025Z162.223° S38.121°2025-07-04 05:15:19.025Z82.668° E
11 mins2025-07-04 06:55:19.025Z261.829° W2025-07-04 07:00:19.025Z240.898° WSW44.893°2025-07-04 07:06:19.025Z85.222° E
12 mins2025-07-04 08:46:19.025Z277.435° WNW2025-07-04 08:51:19.025Z236.896° WSW44.156°2025-07-04 08:58:19.025Z107.044° ESE
10 mins2025-07-04 10:38:19.025Z267.138° W2025-07-04 10:42:19.025Z213.966° SW31.996°2025-07-04 10:48:19.025Z144.74° SSE
|